Regional Weather Roundup
Issued by NWS Jackson, KY

Home | Current Version | Previous Version | Text Only | Print | Product List | Glossary Off
Versions: 1 2 3 4 5 6 7 8 9 10 11 12 13 14 15 16 17 18 19 20 21 22 23 24 25 26 27

000
ASUS43 KJKL 170810
RWRJKL

EAST KENTUCKY HOURLY WEATHER ROUNDUP
NATIONAL WEATHER SERVICE JACKSON KY
300 AM EST FRI NOV 17 2017

NOTE: "FAIR" INDICATES FEW OR NO CLOUDS BELOW 12,000 FEET WITH
NO SIGNIFICANT WEATHER AND/OR OBSTRUCTIONS TO VISIBILITY.

* THESE REPORTS ARE NOT UNDER NWS QUALITY CONTROL AND MAY NOT
  REPORT WEATHER SUCH AS PRECIPITATION AND FOG.

KYZ079-080-083-085-087-088-110-112-115-119-120-170900
...EASTERN KENTUCKY...

CITY           SKY/WX    TMP DP  RH WIND       PRES   REMARKS
JACKSON        CLOUDY    33  27  78 VRB3      30.26S
LONDON         CLOUDY    34  30  85 E7        30.24S WCI  28
SOMERSET*      CLOUDY    34  32  93 E5        30.25F WCI  30
MONTICELLO*    CLOUDY    35  34  96 VRB3      30.26R FOG
WILLIAMSBURG*  CLOUDY    36  36 100 NE3       30.24R
MIDDLESBORO*   CLOUDY    33  33 100 CALM      30.24S
HARLAN APT*    CLOUDY    37  32  81 N3        30.24R
PIKE CO APT*   CLOUDY    34  29  82 NE3       30.26S
BIG SANDY APT* CLOUDY    35  29  78 E3        30.28R
MOREHEAD APT*  CLOUDY    36  28  75 VRB3      30.28S
$$

KYZ035-036-041-042-044-050-067-078-099-170900
...CENTRAL KENTUCKY...

CITY           SKY/WX    TMP DP  RH WIND       PRES   REMARKS
MT STERLING*   CLOUDY    34  30  86 SE6       30.27F WCI  29
FLEMING/MASON* CLOUDY    34  29  80 CALM      30.29S
DANVILLE*      CLOUDY    32  30  93 SE10      30.24F WCI  24
LEXINGTON      CLOUDY    34  28  79 E14       30.24F WCI  25
FRANKFORT      CLOUDY    35  28  75 E10       30.24F WCI  27
LOUISVILLE     CLOUDY    36  31  82 SE10      30.24S WCI  28
LEBANON*       CLOUDY    32  30  93 E9        30.23F WCI  24
GLASGOW*       CLOUDY    34  34 100 E8        30.21S FOG     WCI  27
BOWLING GREEN  CLOUDY    34  34 100 E8        30.22S FOG     WCI  27
$$

KYZ091>093-OHZ055-061-077-WVZ005-015-034-035-042-170900
...SOUTHERN OHIO/WEST VIRGINIA...

CITY           SKY/WX    TMP DP  RH WIND       PRES   REMARKS
COVINGTON      CLOUDY    36  30  79 SE13      30.23F WCI  27
COLUMBUS       CLOUDY    38  29  70 CALM      30.26R
DAYTON         CLOUDY    37  32  82 SE7       30.25S WCI  32
WILMINGTON     CLOUDY    37  30  75 CALM      30.26S
HUNTINGTON     CLOUDY    37  28  70 CALM      30.28R
CHARLESTON     CLOUDY    38  29  70 S5        30.27R WCI  34
PINEVILLE*     CLOUDY    35  28  76 MISG      30.30R
BECKLEY        CLOUDY    31  25  78 N6        30.21R WCI  25
BLUEFIELD      CLOUDY    30  25  81 NW6       30.21R WCI  24
LOGAN CO APT*  CLOUDY    36  28  75 CALM      30.25R
$$

VAZ002-007-008-TNZ017-027-036-066-071-170900
...SOUTHWEST VIRGINIA/EAST TENNESSEE...

CITY           SKY/WX    TMP DP  RH WIND       PRES   REMARKS
WISE*          CLOUDY    34  34 100 N5        30.21R WCI  30
JONESVILLE*      N/A     32  32 100 CALM      30.24R
ABINGDON*      CLEAR     34  32  94 CALM      30.20R
BRISTOL        CLEAR     31  31 100 CALM      30.21R
MORRISTOWN*    SUNNY     37  34  87 CALM      30.19S
SEVIERVILLE*   SUNNY     34  34 100 CALM      30.19S
KNOXVILLE      CLEAR     41  38  89 NE5       30.18R
LAFOLLETTE*    SUNNY     34  34 100 CALM      30.25R
OAK RIDGE      CLEAR     40  38  93 CALM      30.21R
CROSSVILLE     CLEAR     33  32  96 NE3       30.18S FOG
NASHVILLE      PTCLDY    37  34  89 E3        30.19F
$$

...KEY TO REMARKS...
VSB - VISIBILITY IN MILES
WCI - WIND CHILL INDEX
HX  - HEAT INDEX

$$




USA.gov is the U.S. government's official web portal to all federal, state and local government web resources and services.